KS5S Weather Reports


time (UTC)temp
C
wind
direction
speed
KPH
gust
KPH
rain 1hr
cm
rain 24hr
cm
rain mn
cm
humidity
%
barometer
mb
20260906225745 37 112 14.5 17.7 0.00 0.00 0.00 40 1008.9
20260906225241 37 114 8.0 16.1 0.00 0.00 0.00 41 1008.7
20260906224737 37 89 6.4 20.9 0.00 0.00 0.00 41 1008.9
20260906224233 37 123 4.8 11.3 0.00 0.00 0.00 40 1008.9
20260906223730 37 165 3.2 12.9 0.00 0.00 0.00 40 1008.8
20260906223225 38 154 3.2 11.3 0.00 0.00 0.00 40 1008.9
20260906222723 37 60 4.8 22.5 0.00 0.00 0.00 40 1008.7
20260906222222 37 140 6.4 16.1 0.00 0.00 0.00 40 1008.8
20260906221720 37 102 9.7 12.9 0.00 0.00 0.00 41 1008.8
20260906221215 36 133 4.8 14.5 0.00 0.00 0.00 43 1009.0
20260906220710 37 140 6.4 12.9 0.00 0.00 0.00 42 1009.0
20260906220205 37 105 3.2 22.5 0.00 0.00 0.00 41 1009.0
20260906215704 37 127 8.0 17.7 0.00 0.00 0.00 41 1009.1
20260906215203 37 188 4.8 8.0 0.00 0.00 0.00 39 1009.1
20260906214701 38 93 12.9 17.7 0.00 0.00 0.00 38 1009.2
20260906214156 37 44 14.5 19.3 0.00 0.00 0.00 39 1009.0
20260906213656 38 112 6.4 14.5 0.00 0.00 0.00 39 1009.1
20260906213150 37 71 4.8 9.7 0.00 0.00 0.00 41 1009.2
20260906212648 38 113 12.9 24.1 0.00 0.00 0.00 40 1009.3
20260906212143 38 23 8.0 16.1 0.00 0.00 0.00 39 1009.3
20260906211642 37 48 8.0 14.5 0.00 0.00 0.00 39 1009.3
20260906211137 37 124 4.8 24.1 0.00 0.00 0.00 41 1009.3
20260906210633 38 51 9.7 16.1 0.00 0.00 0.00 40 1009.5
20260906210128 37 86 12.9 12.9 0.00 0.00 0.00 41 1009.6
20260906205624 37 14 4.8 19.3 0.00 0.00 0.00 41 1009.5
20260906205120 37 211 3.2 8.0 0.00 0.00 0.00 40 1009.6
20260906204619 37 122 3.2 14.5 0.00 0.00 0.00 41 1009.6
20260906204114 38 107 8.0 16.1 0.00 0.00 0.00 40 1009.6
20260906203613 37 79 6.4 24.1 0.00 0.00 0.00 42 1009.8
20260906203103 37 111 14.5 20.9 0.00 0.00 0.00 41 1009.6
20260906202559 37 184 6.4 14.5 0.00 0.00 0.00 41 1009.7
20260906202100 37 87 9.7 20.9 0.00 0.00 0.00 41 1009.7
20260906201559 37 272 1.6 9.7 0.00 0.00 0.00 41 1009.9
20260906201053 37 160 8.0 12.9 0.00 0.00 0.00 41 1010.1
20260906200549 37 111 11.3 20.9 0.00 0.00 0.00 42 1010.0
20260906200045 37 128 9.7 14.5 0.00 0.00 0.00 41 1010.2
20260906195541 36 197 6.4 16.1 0.00 0.00 0.00 43 1010.4
20260906195037 37 154 9.7 16.1 0.00 0.00 0.00 43 1010.4
20260906194533 37 170 9.7 12.9 0.00 0.00 0.00 42 1010.4
20260906194028 37 91 4.8 14.5 0.00 0.00 0.00 43 1010.3
20260906193528 36 78 6.4 11.3 0.00 0.00 0.00 44 1010.4
20260906193023 37 148 8.0 20.9 0.00 0.00 0.00 44 1010.3
20260906192519 37 139 4.8 16.1 0.00 0.00 0.00 42 1010.4
20260906192017 37 123 4.8 11.3 0.00 0.00 0.00 43 1010.6
20260906191513 37 145 8.0 14.5 0.00 0.00 0.00 44 1010.6
20260906191012 37 151 8.0 12.9 0.00 0.00 0.00 43 1010.7
20260906190511 36 155 3.2 17.7 0.00 0.00 0.00 43 1010.6
20260906190007 36 148 1.6 17.7 0.00 0.00 0.00 45 1010.6
20260906185505 36 178 4.8 17.7 0.00 0.00 0.00 44 1010.7
20260906185004 36 145 6.4 17.7 0.00 0.00 0.00 45 1010.8
20260906184459 36 64 6.4 19.3 0.00 0.00 0.00 45 1010.8
20260906183954 36 164 9.7 16.1 0.00 0.00 0.00 44 1010.9
20260906183450 36 92 0.0 9.7 0.00 0.00 0.00 47 1011.0
20260906182946 36 164 11.3 19.3 0.00 0.00 0.00 45 1011.0
20260906182436 36 112 4.8 12.9 0.00 0.00 0.00 46 1011.1
20260906181932 36 39 14.5 16.1 0.00 0.00 0.00 46 1011.2
20260906181427 36 73 4.8 9.7 0.00 0.00 0.00 47 1011.4
20260906180923 36 128 4.8 12.9 0.00 0.00 0.00 47 1011.3
20260906180418 36 191 17.7 17.7 0.00 0.00 0.00 46 1011.4
20260906175915 36 167 4.8 20.9 0.00 0.00 0.00 47 1011.4
20260906175410 35 286 0.0 14.5 0.00 0.00 0.00 46 1011.7
20260906174909 36 145 11.3 16.1 0.00 0.00 0.00 46 1011.9
20260906174409 36 145 11.3 16.1 0.00 0.00 0.00 46 1011.9
20260906173903 35 197 1.6 8.0 0.00 0.00 0.00 50 1011.9
20260906173359 34 19 0.0 8.0 0.00 0.00 0.00 52 1012.1
20260906172858 34 342 3.2 4.8 0.00 0.00 0.00 53 1012.1
20260906172355 34 110 6.4 12.9 0.00 0.00 0.00 52 1012.1
20260906171849 35 151 4.8 16.1 0.00 0.00 0.00 52 1012.3
20260906171344 36 101 3.2 8.0 0.00 0.00 0.00 50 1012.2
20260906170840 35 124 0.0 6.4 0.00 0.00 0.00 52 1012.6
20260906170336 34 106 11.3 11.3 0.00 0.00 0.00 53 1012.6
20260906165832 33 31 0.0 16.1 0.00 0.00 0.00 55 1012.7
20260906165330 34 151 8.0 14.5 0.00 0.00 0.00 54 1012.6
20260906164826 35 272 3.2 6.4 0.00 0.00 0.00 53 1012.5
20260906164325 34 151 11.3 16.1 0.00 0.00 0.00 54 1012.8
20260906163821 33 106 4.8 14.5 0.00 0.00 0.00 56 1012.6
20260906163317 34 122 8.0 11.3 0.00 0.00 0.00 55 1012.7
20260906162815 34 17 4.8 9.7 0.00 0.00 0.00 56 1012.6
20260906162314 34 103 9.7 14.5 0.00 0.00 0.00 56 1012.6
20260906161809 33 165 6.4 12.9 0.00 0.00 0.00 59 1012.4
20260906161309 33 101 4.8 14.5 0.00 0.00 0.00 59 1012.8
20260906160807 33 104 4.8 9.7 0.00 0.00 0.00 60 1012.6
20260906160302 33 68 4.8 14.5 0.00 0.00 0.00 61 1012.7
20260906155759 33 59 4.8 11.3 0.00 0.00 0.00 61 1012.5
20260906155254 33 47 4.8 11.3 0.00 0.00 0.00 62 1012.6
20260906154750 32 354 4.8 11.3 0.00 0.00 0.00 64 1012.7
20260906154245 32 354 4.8 11.3 0.00 0.00 0.00 64 1012.7
20260906153743 33 287 1.6 6.4 0.00 0.00 0.00 64 1012.6
20260906153237 32 160 4.8 11.3 0.00 0.00 0.00 64 1012.6
20260906152733 32 77 3.2 6.4 0.00 0.00 0.00 64 1012.6
20260906152227 32 95 3.2 6.4 0.00 0.00 0.00 65 1012.5
20260906151727 32 320 4.8 11.3 0.00 0.00 0.00 67 1012.4
20260906151223 32 123 3.2 8.0 0.00 0.00 0.00 66 1012.6
20260906150718 31 173 4.8 9.7 0.00 0.00 0.00 68 1012.7
20260906150213 32 167 3.2 6.4 0.00 0.00 0.00 67 1012.5
20260906145712 31 93 3.2 4.8 0.00 0.00 0.00 68 1012.3
20260906145212 32 260 3.2 6.4 0.00 0.00 0.00 67 1012.3
20260906144706 31 83 1.6 6.4 0.00 0.00 0.00 69 1012.4
20260906144202 31 89 0.0 3.2 0.00 0.00 0.00 70 1012.4
20260906143701 31 255 0.0 4.8 0.00 0.00 0.00 71 1012.5
20260906143158 31 155 1.6 4.8 0.00 0.00 0.00 70 1012.5
20260906142658 30 328 0.0 6.4 0.00 0.00 0.00 73 1012.5
20260906142153 30 106 0.0 8.0 0.00 0.00 0.00 73 1012.3
20260906141652 30 224 1.6 4.8 0.00 0.00 0.00 74 1012.5
20260906141147 30 75 1.6 3.2 0.00 0.00 0.00 74 1012.5
20260906140646 30 180 1.6 3.2 0.00 0.00 0.00 75 1012.3
20260906140141 29 65 0.0 4.8 0.00 0.00 0.00 76 1012.4
20260906135638 28 302 0.0 6.4 0.00 0.00 0.00 78 1012.4
20260906135134 28 184 3.2 8.0 0.00 0.00 0.00 80 1012.1
20260906134630 28 114 1.6 8.0 0.00 0.00 0.00 80 1012.4
20260906134124 28 76 3.2 8.0 0.00 0.00 0.00 80 1012.2
20260906133620 28 104 3.2 6.4 0.00 0.00 0.00 80 1012.1
20260906133115 28 123 0.0 4.8 0.00 0.00 0.00 81 1012.3
20260906132610 27 95 0.0 6.4 0.00 0.00 0.00 82 1012.2
20260906132106 27 124 1.6 11.3 0.00 0.00 0.00 84 1012.1
20260906131601 26 104 4.8 9.7 0.00 0.00 0.00 84 1012.0
20260906131056 26 26 1.6 6.4 0.00 0.00 0.00 84 1011.9
20260906130555 26 79 3.2 6.4 0.00 0.00 0.00 84 1012.0
20260906130051 26 70 1.6 3.2 0.00 0.00 0.00 84 1011.9
20260906125548 26 128 1.6 4.8 0.00 0.00 0.00 85 1011.9
20260906125042 26 66 3.2 4.8 0.00 0.00 0.00 86 1012.0
20260906124538 26 91 3.2 4.8 0.00 0.00 0.00 87 1011.8
20260906124032 25 60 0.0 4.8 0.00 0.00 0.00 88 1011.9
20260906123532 25 77 1.6 4.8 0.00 0.00 0.00 88 1011.7
20260906123027 25 95 1.6 6.4 0.00 0.00 0.00 89 1011.8
20260906122521 25 103 3.2 6.4 0.00 0.00 0.00 89 1012.0
20260906122017 25 16 0.0 3.2 0.00 0.00 0.00 90 1011.7
20260906121513 25 23 0.0 3.2 0.00 0.00 0.00 90 1011.5
20260906121009 25 74 0.0 3.2 0.00 0.00 0.00 90 1011.5
20260906120504 25 44 0.0 3.2 0.00 0.00 0.00 90 1011.3
20260906120002 25 34 0.0 3.2 0.00 0.00 0.00 90 1011.4
20260906115455 25 82 0.0 3.2 0.00 0.00 0.00 90 1011.5
20260906114950 25 124 1.6 3.2 0.00 0.00 0.00 90 1011.3
20260906114445 25 55 0.0 3.2 0.00 0.00 0.00 89 1011.3
20260906113941 25 74 0.0 3.2 0.00 0.00 0.00 89 1011.3
20260906113439 25 109 1.6 3.2 0.00 0.00 0.00 89 1011.3
20260906112935 25 137 0.0 1.6 0.00 0.00 0.00 89 1011.3
20260906112430 25 142 0.0 1.6 0.00 0.00 0.00 89 1011.3
20260906111926 25 57 0.0 3.2 0.00 0.00 0.00 89 1011.1
20260906111425 25 50 0.0 3.2 0.00 0.00 0.00 88 1011.1
20260906110920 25 68 0.0 1.6 0.00 0.00 0.00 88 1011.2
20260906110416 25 75 0.0 4.8 0.00 0.00 0.00 88 1011.1
20260906105915 25 93 3.2 3.2 0.00 0.00 0.00 87 1011.1
20260906105411 25 62 0.0 3.2 0.00 0.00 0.00 87 1011.1
20260906104907 25 50 0.0 3.2 0.00 0.00 0.00 87 1010.8
20260906104405 25 55 0.0 3.2 0.00 0.00 0.00 87 1010.9
20260906103904 25 75 1.6 3.2 0.00 0.00 0.00 87 1010.9
20260906103402 25 57 3.2 3.2 0.00 0.00 0.00 87 1011.0
20260906102858 25 309 0.0 0.0 0.00 0.00 0.00 87 1010.6
20260906102357 25 62 0.0 0.0 0.00 0.00 0.00 87 1010.9
20260906101852 25 75 0.0 1.6 0.00 0.00 0.00 86 1010.9
20260906101347 25 62 0.0 3.2 0.00 0.00 0.00 86 1010.6
20260906100843 25 230 0.0 0.0 0.00 0.00 0.00 85 1010.5
20260906100342 25 284 0.0 1.6 0.00 0.00 0.00 85 1010.4
20260906095837 26 223 3.2 3.2 0.00 0.00 0.00 85 1010.3
20260906095333 25 236 1.6 4.8 0.00 0.00 0.00 85 1010.1
20260906094832 25 245 1.6 3.2 0.00 0.00 0.00 85 1010.5
20260906094326 25 217 0.0 3.2 0.00 0.00 0.00 86 1010.3
20260906093823 25 297 0.0 3.2 0.00 0.00 0.00 86 1010.4
20260906093313 25 305 0.0 1.6 0.00 0.00 0.00 86 1010.2
20260906092808 26 189 0.0 3.2 0.00 0.00 0.00 85 1010.2
20260906092305 26 157 0.0 3.2 0.00 0.00 0.00 85 1010.0
20260906091758 26 217 1.6 3.2 0.00 0.00 0.00 84 1010.2
20260906091254 26 192 1.6 3.2 0.00 0.00 0.00 84 1010.4
20260906090750 26 186 0.0 3.2 0.00 0.00 0.00 84 1010.1
20260906090248 26 193 1.6 3.2 0.00 0.00 0.00 84 1010.2
20260906085748 26 214 0.0 3.2 0.00 0.00 0.00 84 1010.2
20260906085242 26 179 1.6 3.2 0.00 0.00 0.00 84 1010.3
20260906084737 26 229 0.0 1.6 0.00 0.00 0.00 84 1010.2
20260906084236 26 299 0.0 1.6 0.00 0.00 0.00 84 1010.3
20260906083732 26 297 0.0 3.2 0.00 0.00 0.00 83 1010.5
20260906083227 26 230 0.0 1.6 0.00 0.00 0.00 83 1010.3
20260906082721 26 199 0.0 1.6 0.00 0.00 0.00 82 1010.4
20260906082211 26 205 0.0 3.2 0.00 0.00 0.00 82 1010.4
20260906081707 26 239 1.6 3.2 0.00 0.00 0.00 82 1010.3
20260906081202 26 205 1.6 3.2 0.00 0.00 0.00 82 1010.2
20260906080659 26 250 0.0 4.8 0.00 0.00 0.00 82 1010.4
20260906080154 26 196 3.2 6.4 0.00 0.00 0.00 81 1010.2
20260906075654 27 282 0.0 8.0 0.00 0.00 0.00 81 1010.2
20260906075149 27 224 0.0 3.2 0.00 0.00 0.00 81 1010.5
20260906074644 27 197 0.0 4.8 0.00 0.00 0.00 81 1010.4
20260906074143 27 202 0.0 4.8 0.00 0.00 0.00 80 1010.3
20260906073638 27 201 0.0 4.8 0.00 0.00 0.00 80 1010.4
20260906073134 27 186 1.6 4.8 0.00 0.00 0.00 80 1010.4
20260906072629 27 293 0.0 3.2 0.00 0.00 0.00 79 1010.6
20260906072125 27 186 3.2 4.8 0.00 0.00 0.00 79 1010.8
20260906071621 27 117 0.0 9.7 0.00 0.00 0.00 79 1010.8
20260906071120 27 157 0.0 4.8 0.00 0.00 0.00 79 1010.6
20260906070612 27 184 1.6 8.0 0.00 0.00 0.00 78 1010.8
20260906070107 27 176 6.4 8.0 0.00 0.00 0.00 78 1010.6
20260906065607 27 189 3.2 9.7 0.00 0.00 0.00 78 1010.8
20260906065102 27 155 4.8 8.0 0.00 0.00 0.00 77 1010.8
20260906064557 28 195 3.2 6.4 0.00 0.00 0.00 77 1010.9
20260906064052 28 194 4.8 11.3 0.00 0.00 0.00 77 1010.9
20260906063547 28 185 0.0 9.7 0.00 0.00 0.00 77 1011.1
20260906063043 28 251 1.6 8.0 0.00 0.00 0.00 76 1011.2
20260906062538 28 223 4.8 6.4 0.00 0.00 0.00 76 1011.1
20260906062032 28 173 4.8 9.7 0.00 0.00 0.00 76 1011.1
20260906061529 28 158 6.4 11.3 0.00 0.00 0.00 76 1011.2
20260906061028 28 183 3.2 8.0 0.00 0.00 0.00 76 1011.3
20260906060525 28 190 3.2 8.0 0.00 0.00 0.00 76 1011.0
20260906060021 28 183 1.6 6.4 0.00 0.00 0.00 76 1011.1
20260906055518 28 198 3.2 4.8 0.00 0.00 0.00 76 1011.2
20260906055013 28 189 3.2 4.8 0.00 0.00 0.00 76 1011.1
20260906054513 28 202 1.6 3.2 0.00 0.00 0.00 76 1011.0
20260906054008 28 213 0.0 4.8 0.00 0.00 0.00 76 1010.7
20260906053504 28 213 0.0 4.8 0.00 0.00 0.00 76 1010.7
20260906053000 28 230 0.0 1.6 0.00 0.00 0.00 76 1010.9
20260906052455 28 248 1.6 3.2 0.00 0.00 0.00 75 1010.8
20260906051952 28 152 1.6 4.8 0.00 0.00 0.00 75 1011.0
20260906051447 28 210 0.0 3.2 0.00 0.00 0.00 75 1011.1
20260906050943 28 296 0.0 3.2 0.00 0.00 0.00 75 1010.9
20260906050443 28 288 0.0 3.2 0.00 0.00 0.00 74 1010.8
20260906045942 28 297 0.0 4.8 0.00 0.00 0.00 74 1011.0
20260906045441 29 196 3.2 6.4 0.00 0.00 0.00 73 1011.0
20260906044937 29 137 1.6 4.8 0.00 0.00 0.00 73 1011.1
20260906044432 29 159 3.2 4.8 0.00 0.00 0.00 73 1011.1
20260906043927 29 143 1.6 4.8 0.00 0.00 0.00 72 1011.1
20260906043423 29 171 3.2 4.8 0.00 0.00 0.00 72 1011.0
20260906042919 29 184 0.0 6.4 0.00 0.00 0.00 72 1010.7
20260906042418 30 212 3.2 6.4 0.00 0.00 0.00 71 1010.9
20260906041913 30 131 0.0 8.0 0.00 0.00 0.00 71 1010.5
20260906041409 30 198 4.8 8.0 0.00 0.00 0.00 70 1010.7
20260906040909 30 144 0.0 11.3 0.00 0.00 0.00 70 1010.9
20260906040404 30 202 0.0 11.3 0.00 0.00 0.00 69 1010.9
20260906035859 30 177 4.8 14.5 0.00 0.00 0.00 69 1010.9
20260906035355 30 174 4.8 8.0 0.00 0.00 0.00 69 1010.8
20260906034850 30 139 3.2 9.7 0.00 0.00 0.00 68 1010.6
20260906034344 30 243 0.0 8.0 0.00 0.00 0.00 68 1010.8
20260906033840 30 214 0.0 9.7 0.00 0.00 0.00 67 1010.9
20260906033339 30 143 4.8 11.3 0.00 0.00 0.00 67 1010.8
20260906032836 30 170 4.8 14.5 0.00 0.00 0.00 67 1010.8
20260906032332 30 157 6.4 12.9 0.00 0.00 0.00 68 1011.0
20260906031827 30 202 4.8 8.0 0.00 0.00 0.00 68 1010.8
20260906031322 30 181 1.6 8.0 0.00 0.00 0.00 69 1011.0
20260906030821 30 175 1.6 8.0 0.00 0.00 0.00 69 1010.8
20260906030317 30 108 0.0 6.4 0.00 0.00 0.00 68 1010.9
20260906025811 31 177 1.6 8.0 0.00 0.00 0.00 68 1010.9
20260906025306 31 136 6.4 9.7 0.00 0.00 0.00 68 1010.6
20260906024805 31 154 6.4 12.9 0.00 0.00 0.00 67 1010.5
20260906024304 31 151 4.8 11.3 0.00 0.00 0.00 68 1010.4
20260906023759 31 142 4.8 9.7 0.00 0.00 0.00 67 1010.2
20260906023254 31 137 8.0 9.7 0.00 0.00 0.00 67 1010.5
20260906022750 31 151 4.8 14.5 0.00 0.00 0.00 67 1010.2
20260906022245 31 119 4.8 9.7 0.00 0.00 0.00 66 1010.3
20260906021741 31 105 1.6 11.3 0.00 0.00 0.00 66 1010.1
20260906021240 31 69 1.6 8.0 0.00 0.00 0.00 65 1010.0
20260906020735 31 148 1.6 8.0 0.00 0.00 0.00 64 1009.9
20260906020235 31 115 4.8 8.0 0.00 0.00 0.00 63 1010.1
20260906015730 31 111 4.8 17.7 0.00 0.00 0.00 63 1009.7
20260906015228 32 168 3.2 12.9 0.00 0.00 0.00 62 1009.9
20260906014723 32 153 8.0 17.7 0.00 0.00 0.00 61 1009.6
20260906014219 32 101 3.2 12.9 0.00 0.00 0.00 61 1009.6
20260906013715 32 333 0.0 11.3 0.00 0.00 0.00 61 1009.6
20260906013214 32 145 3.2 11.3 0.00 0.00 0.00 61 1009.8
20260906012709 32 146 4.8 19.3 0.00 0.00 0.00 60 1009.5
20260906012204 32 120 4.8 14.5 0.00 0.00 0.00 59 1009.4
20260906011700 32 105 9.7 17.7 0.00 0.00 0.00 58 1009.2
20260906011154 33 101 6.4 17.7 0.00 0.00 0.00 56 1009.3
20260906010649 33 137 6.4 8.0 0.00 0.00 0.00 50 1009.1
20260906010145 34 159 4.8 9.7 0.00 0.00 0.00 50 1009.3
20260906005645 34 183 0.0 6.4 0.00 0.00 0.00 49 1009.1
20260906005144 34 271 0.0 8.0 0.00 0.00 0.00 49 1009.1
20260906004638 34 191 0.0 8.0 0.00 0.00 0.00 49 1009.1
20260906004133 35 23 0.0 8.0 0.00 0.00 0.00 48 1009.0
20260906003628 35 141 3.2 9.7 0.00 0.00 0.00 47 1009.0
20260906003124 35 180 4.8 9.7 0.00 0.00 0.00 47 1008.9
20260906002619 35 139 0.0 8.0 0.00 0.00 0.00 47 1009.0
20260906002114 35 116 8.0 9.7 0.00 0.00 0.00 46 1009.1
20260906001608 35 168 3.2 8.0 0.00 0.00 0.00 46 1009.1
20260906001103 35 149 6.4 14.5 0.00 0.00 0.00 46 1008.9
20260906000559 35 87 9.7 16.1 0.00 0.00 0.00 46 1008.9
20260906000054 36 187 3.2 19.3 0.00 0.00 0.00 45 1008.7
20260905235553 36 148 6.4 22.5 0.00 0.00 0.00 45 1008.6
20260905235049 36 119 12.9 22.5 0.00 0.00 0.00 44 1008.8
20260905234544 36 143 11.3 19.3 0.00 0.00 0.00 44 1008.8
20260905234039 37 193 3.2 17.7 0.00 0.00 0.00 42 1008.5
20260905233539 37 89 11.3 14.5 0.00 0.00 0.00 39 1008.5
20260905233039 37 154 3.2 12.9 0.00 0.00 0.00 39 1008.6
20260905232534 37 155 8.0 11.3 0.00 0.00 0.00 39 1008.7
20260905232030 37 168 3.2 4.8 0.00 0.00 0.00 39 1008.5
20260905231525 37 182 3.2 8.0 0.00 0.00 0.00 39 1008.6
20260905231021 37 134 4.8 11.3 0.00 0.00 0.00 39 1008.5
20260905230520 37 192 1.6 11.3 0.00 0.00 0.00 39 1008.7
20260905230019 37 147 4.8 11.3 0.00 0.00 0.00 39 1008.6